Japan Airlines Virtual Airport Information Service

Osaka International Airport

ICAO: RJOO Country: Japan
Latitude: 34.7855 Longitude: 135.438
Latest Arrival : JAL139 (RJTT-RJOO) Latest Departure : JAL138 (RJOO-RJTT)


WX CaptureLIVE
Data provided by noaa.gov | Fetched at 14:11:43

METAR : RJOO 281100Z 22006KT 190V250 9999 FEW025 08/03 Q1007 RMK 1CU025 A2976

TAF : RJOO 281106Z 2812/2918 24006KT 9999 FEW025 BKN035 BECMG 2813/2815 30010KT TEMPO 2900/2906 27015G25KT


Runway Data for RJOO
Data provided by openaviationdata.com

Runway ID Mag Var Hdg Length Elevation Surface ILS Freq ILS Id ILS Slope
14L -7 142° 5999 ft 39 ft Asphalt -- -- --
14R -7 142° 9845 ft 39 ft Asphalt -- -- --
32L -7 322° 9845 ft 39 ft Asphalt 110.1 ISK 3
32R -7 322° 5999 ft 39 ft Asphalt -- -- --

Osaka International Airport, Japan
Use only for reference purposes



Not for navigational purposes.